QPF
0.00 0.00 0.01 0.02 0.03 0.05 0.05 0.04 0.03 0.03 0.05 0.04 0.05 0.06 0.08 0.08 0.08 0.08 0.07 0.06 0.07 0.08 0.08 0.09 0.09 0.10 0.12 0.13 0.14 0.13 0.12 0.13 0.14 0.14 0.14 0.13 0.16 0.18 0.15 0.15 0.14 0.09 0.07
0.00 0.01 0.01 0.02 0.02 0.03 0.03 0.04 0.03 0.02 0.03 0.04 0.04 0.06 0.07 0.09 0.09 0.08 0.08 0.09 0.08 0.07 0.08 0.08 0.09 0.11 0.12 0.14 0.13 0.13 0.16 0.17 0.15 0.14 0.13 0.13 0.12 0.14 0.15 0.16 0.15 0.10 0.09
0.00 0.01 0.01 0.01 0.01 0.02 0.02 0.03 0.03 0.02 0.02 0.02 0.04 0.05 0.04 0.05 0.05 0.06 0.08 0.09 0.07 0.06 0.06 0.07 0.08 0.09 0.10 0.13 0.13 0.14 0.16 0.18 0.18 0.16 0.13 0.12 0.12 0.14 0.18 0.17 0.14 0.13 0.11
0.00 0.00 0.01 0.00 0.01 0.01 0.02 0.01 0.02 0.02 0.02 0.03 0.04 0.04 0.04 0.04 0.04 0.05 0.06 0.08 0.08 0.07 0.07 0.08 0.08 0.10 0.11 0.10 0.11 0.12 0.14 0.16 0.16 0.16 0.18 0.15 0.12 0.12 0.16 0.19 0.19 0.18 0.16
0.00 0.00 0.00 0.00 0.01 0.01 0.02 0.02 0.02 0.02 0.02 0.03 0.03 0.03 0.03 0.03 0.03 0.04 0.07 0.07 0.07 0.06 0.07 0.07 0.06 0.06 0.08 0.07 0.06 0.09 0.11 0.13 0.13 0.14 0.14 0.16 0.13 0.11 0.11 0.14 0.18 0.21 0.21
0.00 0.00 0.00 0.00 0.00 0.01 0.01 0.02 0.02 0.02 0.03 0.03 0.03 0.04 0.03 0.02 0.02 0.03 0.06 0.07 0.06 0.06 0.06 0.07 0.06 0.06 0.05 0.04 0.05 0.07 0.09 0.10 0.10 0.12 0.12 0.12 0.12 0.11 0.11 0.13 0.15 0.19 0.20
0.00 0.00 0.01 0.01 0.00 0.00 0.00 0.00 0.01 0.02 0.02 0.02 0.02 0.03 0.03 0.02 0.02 0.04 0.05 0.05 0.05 0.05 0.05 0.05 0.05 0.04 0.05 0.06 0.06 0.06 0.07 0.07 0.09 0.11 0.12 0.11 0.13 0.11 0.12 0.12 0.13 0.13 0.13
0.00 0.00 0.00 0.01 0.01 0.01 0.00 0.00 0.00 0.01 0.01 0.02 0.02 0.03 0.03 0.04 0.05 0.06 0.05 0.06 0.06 0.06 0.06 0.05 0.05 0.06 0.06 0.08 0.08 0.08 0.08 0.07 0.07 0.08 0.10 0.12 0.15 0.16 0.14 0.14 0.13 0.13 0.13
0.00 0.00 0.00 0.00 0.00 0.01 0.01 0.00 0.00 0.00 0.00 0.01 0.02 0.02 0.03 0.03 0.05 0.06 0.06 0.06 0.05 0.06 0.06 0.05 0.05 0.05 0.05 0.06 0.08 0.08 0.08 0.08 0.09 0.10 0.09 0.10 0.14 0.15 0.18 0.17 0.15 0.13 0.14
0.00 0.00 0.00 0.00 0.00 0.00 0.01 0.01 0.00 0.00 0.01 0.01 0.00 0.01 0.01 0.01 0.01 0.03 0.05 0.06 0.06 0.05 0.06 0.05 0.04 0.03 0.03 0.04 0.07 0.08 0.07 0.07 0.09 0.08 0.08 0.07 0.08 0.10 0.14 0.17 0.18 0.15 0.11
0.00 0.00 0.00 0.00 0.00 0.00 0.00 0.00 0.01 0.00 0.00 0.00 0.00 0.00 0.00 0.00 0.00 0.01 0.02 0.04 0.05 0.05 0.05 0.04 0.03 0.02 0.03 0.04 0.06 0.07 0.06 0.05 0.07 0.09 0.09 0.09 0.08 0.07 0.09 0.13 0.16 0.15 0.11
0.00 0.00 0.00 0.00 0.00 0.00 0.00 0.00 0.00 0.00 0.00 0.00 0.00 0.00 0.00 0.00 0.00 0.00 0.00 0.02 0.03 0.03 0.04 0.03 0.02 0.02 0.02 0.02 0.03 0.05 0.06 0.07 0.07 0.08 0.09 0.09 0.10 0.08 0.09 0.12 0.13 0.14 0.13
0.00 0.00 0.00 0.00 0.00 0.00 0.00 0.00 0.00 0.00 0.00 0.00 0.00 0.00 0.00 0.00 0.01 0.01 0.01 0.01 0.01 0.01 0.01 0.01 0.01 0.02 0.03 0.03 0.04 0.06 0.07 0.08 0.10 0.10 0.10 0.09 0.10 0.12 0.11 0.11 0.12 0.13 0.13
0.00 0.00 0.00 0.00 0.00 0.00 0.00 0.00 0.00 0.00 0.00 0.00 0.00 0.00 0.00 0.00 0.00 0.01 0.01 0.01 0.01 0.01 0.01 0.01 0.01 0.01 0.02 0.03 0.04 0.06 0.09 0.09 0.10 0.11 0.10 0.10 0.09 0.10 0.11 0.10 0.09 0.09 0.10
0.00 0.00 0.00 0.00 0.00 0.00 0.00 0.00 0.00 0.00 0.00 0.00 0.00 0.00 0.00 0.00 0.00 0.00 0.00 0.00 0.01 0.00 0.00 0.01 0.01 0.02 0.03 0.04 0.05 0.05 0.05 0.05 0.05 0.06 0.08 0.06 0.06 0.06 0.08 0.08 0.08 0.08 0.07
0.00 0.00 0.00 0.00 0.00 0.00 0.00 0.00 0.00 0.00 0.00 0.00 0.00 0.00 0.00 0.00 0.00 0.00 0.00 0.00 0.00 0.00 0.00 0.01 0.01 0.02 0.02 0.02 0.03 0.04 0.04 0.04 0.04 0.04 0.06 0.07 0.05 0.05 0.06 0.07 0.07 0.07 0.07
0.00 0.00 0.00 0.00 0.00 0.00 0.00 0.00 0.00 0.00 0.00 0.00 0.00 0.00 0.00 0.00 0.00 0.00 0.00 0.00 0.00 0.00 0.01 0.01 0.01 0.01 0.02 0.02 0.02 0.02 0.03 0.03 0.02 0.02 0.04 0.07 0.08 0.06 0.06 0.07 0.06 0.06 0.07
0.00 0.00 0.00 0.00 0.00 0.00 0.00 0.00 0.00 0.00 0.00 0.00 0.00 0.00 0.00 0.00 0.00 0.00 0.00 0.00 0.00 0.00 0.01 0.01 0.01 0.01 0.01 0.02 0.02 0.01 0.02 0.03 0.02 0.03 0.04 0.06 0.07 0.08 0.08 0.09 0.07 0.06 0.05
0.00 0.00 0.00 0.00 0.00 0.00 0.00 0.00 0.00 0.00 0.00 0.00 0.00 0.00 0.00 0.00 0.00 0.00 0.00 0.00 0.00 0.00 0.00 0.00 0.00 0.00 0.01 0.01 0.01 0.01 0.01 0.01 0.02 0.03 0.05 0.06 0.07 0.07 0.08 0.08 0.07 0.06 0.06
0.00 0.00 0.00 0.00 0.00 0.00 0.00 0.00 0.00 0.00 0.00 0.00 0.00 0.00 0.00 0.00 0.00 0.00 0.00 0.00 0.00 0.00 0.00 0.00 0.00 0.00 0.00 0.01 0.00 0.01 0.01 0.01 0.01 0.02 0.03 0.04 0.06 0.07 0.07 0.06 0.05 0.04 0.04
0.00 0.00 0.00 0.00 0.00 0.00 0.00 0.00 0.00 0.00 0.00 0.00 0.00 0.00 0.00 0.00 0.00 0.00 0.00 0.00 0.00 0.00 0.00 0.00 0.00 0.00 0.00 0.01 0.01 0.00 0.00 0.00 0.01 0.01 0.01 0.01 0.02 0.03 0.05 0.05 0.04 0.03 0.02
0.00 0.00 0.00 0.00 0.00 0.00 0.00 0.00 0.00 0.00 0.00 0.00 0.00 0.00 0.00 0.00 0.00 0.00 0.00 0.00 0.00 0.00 0.00 0.00 0.00 0.00 0.00 0.00 0.01 0.01 0.01 0.00 0.00 0.00 0.01 0.01 0.01 0.01 0.01 0.02 0.03 0.02 0.02
0.00 0.00 0.00 0.00 0.00 0.00 0.00 0.00 0.00 0.00 0.00 0.00 0.00 0.00 0.00 0.00 0.00 0.00 0.00 0.00 0.00 0.00 0.00 0.00 0.00 0.00 0.00 0.00 0.00 0.01 0.01 0.01 0.01 0.00 0.00 0.00 0.01 0.01 0.01 0.01 0.01 0.01 0.01
0.00 0.00 0.00 0.00 0.00 0.00 0.00 0.00 0.00 0.00 0.00 0.00 0.00 0.00 0.00 0.00 0.00 0.00 0.00 0.01 0.01 0.01 0.01 0.01 0.01 0.01 0.01 0.01 0.00 0.00 0.01 0.01 0.02 0.01 0.01 0.01 0.00 0.00 0.00 0.00 0.00 0.00 0.00
0.00 0.00 0.00 0.00 0.00 0.00 0.00 0.00 0.00 0.00 0.00 0.00 0.00 0.01 0.01 0.01 0.01 0.00 0.00 0.01 0.01 0.02 0.02 0.02 0.02 0.02 0.02 0.01 0.01 0.01 0.01 0.01 0.01 0.01 0.01 0.01 0.01 0.01 0.00 0.00 0.00 0.00 0.00
0.00 0.00 0.00 0.00 0.00 0.00 0.00 0.00 0.00 0.00 0.00 0.00 0.01 0.01 0.01 0.01 0.01 0.02 0.01 0.02 0.02 0.02 0.03 0.03 0.03 0.03 0.03 0.02 0.02 0.02 0.02 0.01 0.01 0.00 0.01 0.01 0.01 0.01 0.01 0.00 0.00 0.00 0.00
MSLP
1014.10 1014.14 1014.16 1014.14 1014.05 1013.88 1013.64 1013.34 1013.02 1012.69 1012.37 1012.09 1011.84 1011.60 1011.36 1011.10 1010.80 1010.47 1010.10 1009.73 1009.37 1009.05 1008.81 1008.66 1008.59 1008.62 1008.71 1008.85 1009.00 1009.15 1009.28 1009.39 1009.46 1009.51 1009.56 1009.62 1009.70 1009.82 1009.98 1010.20 1010.47 1010.79 1011.16
1013.92 1013.97 1014.00 1014.01 1013.95 1013.83 1013.64 1013.40 1013.12 1012.84 1012.57 1012.32 1012.10 1011.89 1011.67 1011.43 1011.16 1010.84 1010.47 1010.09 1009.70 1009.33 1009.01 1008.77 1008.61 1008.54 1008.55 1008.63 1008.75 1008.90 1009.05 1009.20 1009.33 1009.45 1009.56 1009.66 1009.76 1009.88 1010.02 1010.19 1010.40 1010.66 1010.97
1013.72 1013.80 1013.87 1013.90 1013.89 1013.82 1013.68 1013.49 1013.27 1013.04 1012.81 1012.60 1012.40 1012.22 1012.02 1011.81 1011.55 1011.25 1010.90 1010.51 1010.11 1009.73 1009.37 1009.08 1008.86 1008.73 1008.69 1008.72 1008.82 1008.96 1009.12 1009.29 1009.46 1009.60 1009.73 1009.84 1009.93 1010.03 1010.13 1010.25 1010.41 1010.61 1010.87
1013.52 1013.64 1013.75 1013.83 1013.85 1013.82 1013.73 1013.59 1013.41 1013.22 1013.03 1012.85 1012.68 1012.51 1012.34 1012.14 1011.91 1011.63 1011.30 1010.93 1010.55 1010.16 1009.80 1009.50 1009.26 1009.10 1009.04 1009.05 1009.13 1009.25 1009.41 1009.57 1009.73 1009.86 1009.97 1010.04 1010.10 1010.14 1010.19 1010.27 1010.38 1010.54 1010.76
1013.34 1013.50 1013.64 1013.76 1013.82 1013.82 1013.76 1013.65 1013.50 1013.34 1013.18 1013.02 1012.87 1012.72 1012.56 1012.38 1012.17 1011.91 1011.61 1011.27 1010.91 1010.54 1010.21 1009.92 1009.69 1009.54 1009.46 1009.47 1009.53 1009.64 1009.77 1009.89 1010.00 1010.07 1010.11 1010.12 1010.10 1010.08 1010.08 1010.10 1010.19 1010.33 1010.54
1013.17 1013.38 1013.55 1013.69 1013.77 1013.78 1013.74 1013.64 1013.52 1013.37 1013.22 1013.08 1012.94 1012.80 1012.66 1012.49 1012.29 1012.06 1011.78 1011.47 1011.14 1010.81 1010.50 1010.24 1010.03 1009.90 1009.83 1009.83 1009.88 1009.95 1010.02 1010.08 1010.11 1010.09 1010.03 1009.93 1009.82 1009.72 1009.66 1009.65 1009.71 1009.87 1010.11
1013.03 1013.27 1013.47 1013.61 1013.69 1013.71 1013.66 1013.57 1013.45 1013.31 1013.17 1013.03 1012.90 1012.77 1012.64 1012.48 1012.29 1012.07 1011.81 1011.52 1011.22 1010.92 1010.64 1010.40 1010.22 1010.09 1010.03 1010.01 1010.03 1010.05 1010.05 1010.02 1009.94 1009.80 1009.62 1009.41 1009.19 1009.01 1008.89 1008.85 1008.92 1009.11 1009.40
1012.91 1013.17 1013.38 1013.52 1013.59 1013.60 1013.54 1013.44 1013.32 1013.18 1013.04 1012.91 1012.79 1012.67 1012.54 1012.39 1012.21 1012.00 1011.75 1011.47 1011.18 1010.89 1010.62 1010.40 1010.22 1010.09 1010.01 1009.97 1009.93 1009.89 1009.80 1009.67 1009.47 1009.21 1008.90 1008.57 1008.25 1007.99 1007.81 1007.76 1007.85 1008.08 1008.45
1012.78 1013.05 1013.26 1013.40 1013.47 1013.46 1013.39 1013.28 1013.15 1013.01 1012.88 1012.76 1012.64 1012.53 1012.41 1012.27 1012.09 1011.88 1011.64 1011.36 1011.07 1010.79 1010.52 1010.28 1010.09 1009.94 1009.83 1009.73 1009.64 1009.51 1009.34 1009.10 1008.79 1008.41 1007.99 1007.55 1007.14 1006.80 1006.59 1006.52 1006.63 1006.92 1007.37
1012.63 1012.90 1013.11 1013.24 1013.29 1013.27 1013.20 1013.08 1012.95 1012.82 1012.69 1012.58 1012.48 1012.38 1012.27 1012.14 1011.98 1011.77 1011.53 1011.26 1010.97 1010.67 1010.39 1010.14 1009.91 1009.73 1009.56 1009.41 1009.25 1009.05 1008.79 1008.46 1008.05 1007.58 1007.06 1006.54 1006.06 1005.67 1005.42 1005.34 1005.46 1005.79 1006.30
1012.41 1012.68 1012.88 1013.00 1013.05 1013.02 1012.94 1012.83 1012.70 1012.58 1012.46 1012.36 1012.27 1012.19 1012.10 1011.99 1011.85 1011.67 1011.44 1011.19 1010.90 1010.60 1010.31 1010.03 1009.77 1009.54 1009.33 1009.12 1008.89 1008.62 1008.29 1007.90 1007.42 1006.89 1006.32 1005.75 1005.22 1004.80 1004.52 1004.43 1004.54 1004.88 1005.42
1012.11 1012.36 1012.55 1012.66 1012.69 1012.67 1012.59 1012.48 1012.36 1012.24 1012.13 1012.05 1011.98 1011.92 1011.86 1011.78 1011.67 1011.52 1011.34 1011.11 1010.85 1010.56 1010.27 1009.98 1009.70 1009.43 1009.17 1008.92 1008.64 1008.32 1007.96 1007.53 1007.03 1006.48 1005.89 1005.31 1004.77 1004.33 1004.04 1003.92 1004.02 1004.33 1004.86
1011.73 1011.94 1012.10 1012.19 1012.22 1012.18 1012.10 1012.00 1011.88 1011.76 1011.66 1011.58 1011.53 1011.49 1011.46 1011.42 1011.37 1011.28 1011.15 1010.97 1010.76 1010.51 1010.24 1009.96 1009.67 1009.39 1009.11 1008.82 1008.51 1008.18 1007.81 1007.38 1006.90 1006.38 1005.82 1005.27 1004.76 1004.33 1004.03 1003.90 1003.96 1004.22 1004.69
1011.28 1011.44 1011.55 1011.62 1011.62 1011.58 1011.49 1011.37 1011.24 1011.12 1011.01 1010.93 1010.89 1010.87 1010.87 1010.88 1010.88 1010.85 1010.80 1010.70 1010.55 1010.37 1010.14 1009.89 1009.62 1009.34 1009.05 1008.75 1008.45 1008.13 1007.78 1007.40 1006.98 1006.52 1006.04 1005.56 1005.11 1004.73 1004.44 1004.30 1004.32 1004.51 1004.90
1010.83 1010.92 1010.98 1011.00 1010.97 1010.89 1010.78 1010.64 1010.49 1010.34 1010.22 1010.12 1010.07 1010.06 1010.08 1010.12 1010.18 1010.22 1010.25 1010.23 1010.17 1010.05 1009.89 1009.68 1009.44 1009.18 1008.90 1008.62 1008.33 1008.05 1007.75 1007.44 1007.11 1006.76 1006.39 1006.02 1005.67 1005.36 1005.13 1004.99 1004.98 1005.11 1005.40
1010.46 1010.48 1010.47 1010.43 1010.35 1010.23 1010.08 1009.90 1009.71 1009.53 1009.37 1009.24 1009.16 1009.14 1009.16 1009.23 1009.32 1009.42 1009.51 1009.56 1009.57 1009.52 1009.42 1009.26 1009.05 1008.81 1008.56 1008.30 1008.04 1007.80 1007.57 1007.35 1007.13 1006.91 1006.68 1006.45 1006.23 1006.03 1005.86 1005.76 1005.75 1005.83 1006.04
1010.28 1010.21 1010.12 1010.02 1009.88 1009.71 1009.52 1009.29 1009.06 1008.83 1008.62 1008.44 1008.33 1008.27 1008.27 1008.33 1008.44 1008.56 1008.68 1008.78 1008.83 1008.83 1008.76 1008.63 1008.45 1008.22 1007.98 1007.74 1007.51 1007.32 1007.15 1007.02 1006.91 1006.83 1006.75 1006.67 1006.59 1006.52 1006.46 1006.42 1006.44 1006.51 1006.66
1010.34 1010.19 1010.03 1009.86 1009.67 1009.46 1009.22 1008.95 1008.67 1008.39 1008.13 1007.90 1007.73 1007.62 1007.58 1007.61 1007.69 1007.79 1007.91 1008.01 1008.07 1008.07 1008.00 1007.87 1007.69 1007.46 1007.21 1006.97 1006.76 1006.60 1006.48 1006.42 1006.41 1006.44 1006.50 1006.57 1006.64 1006.70 1006.75 1006.81 1006.88 1006.97 1007.11
1010.67 1010.45 1010.24 1010.02 1009.79 1009.54 1009.26 1008.96 1008.65 1008.33 1008.02 1007.75 1007.52 1007.35 1007.25 1007.21 1007.23 1007.28 1007.35 1007.40 1007.42 1007.38 1007.28 1007.12 1006.90 1006.64 1006.37 1006.11 1005.89 1005.73 1005.64 1005.62 1005.68 1005.80 1005.96 1006.14 1006.33 1006.52 1006.69 1006.84 1006.99 1007.14 1007.30
1011.23 1010.97 1010.72 1010.47 1010.22 1009.95 1009.66 1009.36 1009.03 1008.69 1008.36 1008.04 1007.77 1007.53 1007.36 1007.24 1007.17 1007.13 1007.11 1007.08 1007.02 1006.91 1006.74 1006.51 1006.24 1005.92 1005.60 1005.30 1005.05 1004.86 1004.76 1004.75 1004.83 1004.99 1005.21 1005.47 1005.74 1006.02 1006.28 1006.53 1006.75 1006.96 1007.18
1011.93 1011.66 1011.39 1011.14 1010.89 1010.63 1010.35 1010.06 1009.75 1009.42 1009.08 1008.74 1008.43 1008.14 1007.90 1007.69 1007.52 1007.38 1007.25 1007.11 1006.94 1006.73 1006.48 1006.17 1005.82 1005.44 1005.06 1004.70 1004.39 1004.16 1004.01 1003.97 1004.02 1004.17 1004.39 1004.66 1004.97 1005.29 1005.61 1005.92 1006.21 1006.48 1006.75
1012.65 1012.38 1012.13 1011.89 1011.65 1011.43 1011.19 1010.94 1010.66 1010.36 1010.04 1009.71 1009.37 1009.05 1008.74 1008.45 1008.19 1007.94 1007.70 1007.45 1007.17 1006.87 1006.52 1006.13 1005.71 1005.26 1004.82 1004.40 1004.03 1003.73 1003.51 1003.40 1003.38 1003.46 1003.63 1003.86 1004.14 1004.45 1004.78 1005.11 1005.44 1005.76 1006.09
1013.25 1013.00 1012.77 1012.56 1012.37 1012.18 1012.00 1011.80 1011.57 1011.32 1011.04 1010.73 1010.39 1010.05 1009.70 1009.35 1009.01 1008.67 1008.33 1007.99 1007.62 1007.23 1006.81 1006.36 1005.89 1005.39 1004.90 1004.42 1003.99 1003.61 1003.31 1003.10 1002.98 1002.95 1003.01 1003.14 1003.34 1003.59 1003.88 1004.19 1004.53 1004.88 1005.24
1013.66 1013.43 1013.22 1013.05 1012.89 1012.75 1012.62 1012.48 1012.31 1012.11 1011.88 1011.60 1011.28 1010.93 1010.56 1010.18 1009.78 1009.38 1008.97 1008.56 1008.14 1007.70 1007.24 1006.75 1006.25 1005.73 1005.21 1004.69 1004.20 1003.75 1003.36 1003.03 1002.78 1002.61 1002.53 1002.54 1002.61 1002.76 1002.97 1003.24 1003.55 1003.90 1004.28
1013.83 1013.62 1013.44 1013.29 1013.17 1013.07 1012.98 1012.89 1012.77 1012.62 1012.43 1012.18 1011.89 1011.55 1011.17 1010.76 1010.34 1009.91 1009.47 1009.02 1008.57 1008.11 1007.64 1007.15 1006.65 1006.13 1005.59 1005.05 1004.52 1004.00 1003.51 1003.07 1002.69 1002.37 1002.14 1001.99 1001.93 1001.95 1002.07 1002.27 1002.54 1002.88 1003.27
1013.80 1013.61 1013.44 1013.31 1013.22 1013.14 1013.08 1013.02 1012.94 1012.82 1012.65 1012.43 1012.16 1011.83 1011.45 1011.04 1010.61 1010.16 1009.71 1009.26 1008.81 1008.36 1007.90 1007.43 1006.95 1006.44 1005.91 1005.35 1004.78 1004.20 1003.63 1003.08 1002.56 1002.10 1001.71 1001.41 1001.21 1001.12 1001.14 1001.27 1001.50 1001.82 1002.23
Thickness
5684 5680 5675 5672 5669 5667 5663 5661 5659 5659 5658 5658 5659 5659 5659 5659 5659 5660 5661 5664 5665 5666 5669 5672 5675 5678 5680 5683 5686 5689 5690 5692 5690 5695 5701 5707 5709 5710 5710 5712 5713 5713 5713
5686 5681 5677 5674 5671 5667 5664 5662 5661 5659 5659 5658 5658 5657 5656 5656 5656 5656 5657 5659 5661 5661 5664 5667 5670 5673 5675 5678 5681 5684 5686 5689 5689 5688 5692 5697 5700 5704 5704 5705 5706 5706 5706
5688 5682 5678 5675 5671 5668 5665 5663 5661 5659 5658 5657 5656 5655 5654 5654 5653 5654 5655 5656 5657 5659 5661 5663 5665 5668 5669 5673 5676 5679 5682 5686 5687 5686 5687 5690 5693 5696 5697 5697 5698 5699 5699
5691 5685 5680 5676 5673 5670 5667 5664 5661 5659 5657 5655 5654 5654 5653 5651 5651 5650 5651 5652 5654 5656 5658 5659 5661 5663 5665 5668 5671 5674 5677 5679 5681 5681 5682 5683 5685 5688 5689 5688 5688 5689 5690
5693 5687 5682 5679 5675 5671 5668 5665 5662 5659 5657 5655 5653 5652 5651 5650 5648 5647 5647 5649 5651 5652 5655 5657 5659 5661 5662 5664 5666 5668 5670 5672 5674 5675 5675 5677 5678 5679 5681 5682 5681 5680 5681
5695 5689 5685 5681 5676 5672 5669 5666 5662 5660 5657 5655 5653 5651 5649 5648 5647 5646 5646 5646 5648 5649 5651 5654 5656 5657 5659 5661 5662 5664 5666 5666 5667 5669 5671 5672 5674 5676 5677 5677 5675 5673 5671
5697 5692 5687 5682 5678 5674 5671 5667 5663 5660 5658 5655 5653 5651 5649 5647 5647 5647 5646 5646 5647 5648 5650 5651 5653 5655 5655 5656 5658 5660 5661 5664 5666 5668 5668 5670 5672 5674 5673 5671 5671 5670 5669
5698 5693 5689 5684 5679 5675 5672 5668 5665 5662 5659 5656 5654 5652 5650 5648 5647 5646 5646 5646 5647 5647 5648 5649 5649 5650 5652 5652 5653 5654 5656 5659 5663 5666 5667 5669 5671 5672 5672 5670 5668 5664 5662
5698 5694 5690 5686 5681 5677 5673 5669 5667 5664 5661 5659 5657 5654 5651 5650 5648 5646 5646 5645 5645 5646 5646 5647 5647 5647 5648 5649 5650 5650 5651 5654 5659 5662 5664 5665 5667 5668 5668 5664 5661 5658 5655
5700 5696 5693 5688 5683 5678 5674 5672 5669 5666 5663 5661 5659 5657 5654 5651 5649 5647 5646 5645 5644 5644 5644 5645 5645 5645 5645 5646 5646 5647 5647 5650 5653 5655 5657 5659 5661 5662 5663 5662 5660 5656 5653
5701 5697 5693 5689 5685 5681 5677 5674 5671 5668 5665 5662 5660 5659 5656 5653 5651 5648 5646 5644 5642 5642 5642 5642 5642 5643 5643 5644 5645 5645 5646 5648 5649 5651 5652 5653 5654 5655 5656 5657 5657 5655 5652
5701 5696 5692 5689 5686 5683 5678 5675 5672 5669 5665 5663 5661 5660 5658 5656 5653 5650 5647 5645 5644 5641 5641 5640 5640 5640 5641 5642 5642 5643 5645 5645 5646 5646 5647 5647 5647 5649 5650 5651 5651 5651 5651
5699 5695 5692 5690 5687 5684 5679 5676 5673 5670 5666 5664 5661 5659 5657 5656 5654 5651 5648 5646 5645 5642 5641 5640 5640 5640 5639 5639 5640 5641 5642 5642 5642 5642 5642 5642 5644 5644 5644 5644 5644 5644 5644
5697 5695 5693 5690 5687 5685 5681 5678 5673 5669 5666 5663 5661 5658 5657 5655 5653 5650 5648 5646 5644 5642 5641 5640 5640 5640 5638 5638 5638 5639 5640 5641 5640 5640 5639 5639 5640 5639 5638 5638 5637 5637 5636
5695 5693 5692 5689 5687 5683 5681 5677 5674 5672 5668 5663 5661 5658 5655 5653 5651 5650 5647 5645 5642 5640 5639 5640 5640 5639 5638 5638 5639 5639 5639 5639 5638 5638 5637 5636 5635 5635 5634 5634 5633 5632 5631
5691 5690 5687 5685 5683 5681 5678 5676 5676 5673 5670 5667 5664 5660 5657 5655 5652 5650 5647 5645 5642 5640 5638 5638 5638 5639 5638 5638 5638 5638 5638 5637 5637 5637 5635 5634 5633 5632 5631 5630 5629 5628 5627
5685 5684 5682 5680 5679 5676 5675 5672 5670 5670 5668 5666 5663 5660 5656 5654 5651 5648 5646 5643 5641 5639 5636 5638 5638 5639 5639 5639 5638 5637 5637 5637 5637 5635 5634 5633 5632 5630 5628 5627 5626 5626 5625
5679 5677 5675 5674 5673 5672 5671 5670 5668 5666 5664 5663 5662 5659 5656 5654 5650 5647 5643 5639 5638 5638 5637 5638 5638 5639 5639 5639 5638 5637 5636 5636 5635 5634 5632 5631 5630 5629 5627 5626 5625 5624 5623
5670 5668 5667 5667 5667 5667 5666 5665 5664 5663 5662 5661 5661 5659 5656 5652 5648 5643 5639 5636 5637 5638 5639 5639 5639 5639 5639 5639 5638 5637 5635 5634 5633 5632 5631 5630 5628 5627 5625 5624 5623 5623 5621
5660 5660 5659 5659 5659 5658 5657 5657 5656 5656 5655 5654 5653 5653 5650 5645 5642 5640 5637 5635 5636 5636 5637 5638 5638 5638 5638 5637 5636 5635 5633 5632 5631 5630 5629 5628 5627 5626 5624 5623 5622 5620 5619
5649 5649 5650 5649 5648 5647 5647 5647 5647 5647 5646 5645 5645 5646 5644 5641 5640 5639 5638 5636 5635 5635 5635 5635 5635 5635 5634 5634 5632 5631 5630 5630 5629 5628 5628 5627 5625 5624 5623 5622 5621 5619 5618
5637 5637 5637 5636 5636 5635 5635 5635 5635 5635 5635 5635 5635 5636 5636 5633 5632 5632 5631 5632 5633 5633 5633 5632 5632 5632 5631 5630 5628 5627 5627 5626 5626 5625 5625 5625 5624 5622 5621 5619 5618 5617 5616
5624 5624 5623 5623 5623 5622 5622 5621 5621 5620 5620 5620 5620 5620 5620 5619 5618 5619 5619 5621 5622 5623 5625 5626 5626 5626 5626 5626 5625 5624 5623 5623 5623 5623 5622 5621 5620 5619 5618 5617 5616 5615 5614
5609 5609 5608 5607 5607 5606 5605 5605 5604 5604 5603 5603 5603 5602 5602 5602 5602 5603 5603 5604 5606 5608 5609 5611 5614 5616 5617 5617 5618 5619 5619 5619 5618 5619 5619 5618 5617 5616 5615 5614 5614 5613 5612
5594 5593 5592 5591 5590 5589 5588 5587 5586 5586 5585 5584 5583 5582 5582 5582 5582 5583 5584 5585 5586 5588 5590 5593 5595 5598 5602 5605 5607 5609 5610 5610 5610 5611 5612 5612 5612 5612 5611 5611 5610 5609 5608
5580 5578 5577 5575 5573 5572 5570 5569 5567 5566 5565 5563 5562 5561 5560 5559 5559 5559 5560 5560 5562 5565 5568 5571 5575 5578 5582 5587 5592 5595 5598 5599 5600 5601 5602 5604 5605 5606 5606 5605 5605 5604 5604